Wetbulb
34.45 35.08 33.91 34.20 35.17 35.89 37.01 36.45 37.22 39.45 40.09 40.22 40.19 40.18 40.74 41.40 41.61 41.91 42.29 42.68 43.13 43.86 44.52 44.72 45.34 45.67 46.07
32.87 32.86 32.13 34.79 34.75 34.16 35.01 36.95 36.27 37.98 39.31 39.31 39.47 39.94 40.25 40.49 40.62 40.92 41.12 41.45 41.75 42.17 42.61 43.13 43.57 44.01 44.68
30.89 33.59 33.76 34.34 33.94 35.02 35.13 35.14 35.94 37.71 38.33 38.62 39.26 39.46 39.69 39.97 40.19 40.29 40.18 40.19 40.34 40.24 40.49 40.91 41.57 42.27 43.05
32.08 32.82 33.47 34.54 34.31 32.59 31.93 33.51 32.23 34.97 36.62 37.43 38.43 38.63 39.13 39.49 39.54 39.16 38.85 38.87 39.04 39.19 39.26 39.40 39.64 40.39 41.27
31.60 32.72 33.11 31.85 30.78 31.69 29.78 30.58 31.63 33.26 32.54 33.23 33.18 33.68 34.63 37.11 37.26 37.91 38.20 38.57 38.70 38.98 39.26 39.32 39.25 39.76 40.29
32.82 30.21 30.91 30.98 30.77 29.36 28.67 27.43 25.98 32.66 30.33 30.14 33.19 31.72 33.13 33.86 37.30 38.06 38.24 38.25 38.32 38.39 38.46 38.53 38.54 38.70 39.10
30.71 30.37 29.19 30.02 29.73 28.82 28.90 29.05 27.92 30.86 30.42 28.21 31.77 30.49 32.81 34.26 37.12 37.61 37.96 38.12 37.96 37.97 37.91 37.91 38.06 38.33 38.56
31.60 30.61 30.42 31.28 31.40 31.07 30.29 29.59 30.02 30.80 31.93 26.52 30.28 29.43 31.83 32.91 36.65 36.87 37.09 37.21 37.07 36.99 37.13 37.21 37.30 37.54 37.71
32.74 33.41 34.08 34.31 33.76 30.35 27.45 27.05 26.22 26.69 29.56 27.16 28.06 28.33 29.20 29.39 30.92 35.56 35.96 36.45 36.53 36.77 36.90 36.79 36.77 36.75 35.45
29.91 30.63 31.83 31.06 33.26 30.11 28.59 26.00 24.99 24.52 28.96 27.05 26.93 26.46 24.95 27.78 28.53 29.58 29.42 33.91 35.32 35.87 35.88 36.27 36.45 33.29 31.95
28.00 28.26 29.00 29.47 29.83 30.20 30.30 29.42 25.97 24.76 28.45 28.85 24.62 25.29 24.83 24.17 26.39 27.64 27.99 28.70 29.64 31.18 34.22 34.76 34.88 34.44 31.17
26.76 27.20 27.73 28.55 29.48 29.67 29.08 28.99 29.24 27.76 28.17 27.90 24.90 23.93 22.65 21.49 21.11 24.86 26.70 27.87 28.49 28.65 29.43 32.43 34.20 34.76 35.28
26.25 26.94 28.18 28.42 28.20 27.85 29.49 29.92 29.33 29.76 29.60 28.02 27.48 26.33 24.76 22.33 21.69 23.00 24.65 25.81 27.53 27.25 29.51 30.30 30.12 30.75 29.38
26.43 26.93 27.41 27.20 26.64 27.92 26.79 26.55 25.35 25.93 28.13 28.79 29.89 28.78 25.96 25.68 25.08 24.06 25.87 24.30 27.15 28.47 29.41 30.29 30.81 30.65 29.97
25.46 25.34 25.04 25.69 25.58 26.95 26.56 25.95 24.82 25.01 25.72 28.12 30.30 30.99 30.37 28.40 25.33 25.87 26.44 27.10 28.72 28.49 28.67 28.60 30.52 31.39 31.41
23.81 23.90 23.37 23.46 23.25 25.24 26.50 26.06 25.04 25.28 25.85 27.35 27.84 28.05 28.62 29.55 32.26 27.79 28.49 28.58 29.63 30.50 31.23 29.49 29.47 31.54 32.40
24.44 23.64 23.47 23.72 23.83 24.21 25.24 25.44 25.08 25.37 26.40 28.03 28.00 27.05 24.20 22.46 28.64 34.61 29.12 28.98 28.94 29.36 30.11 29.67 29.03 30.80 32.39
MSLP
1022.38 1022.66 1022.83 1022.69 1022.26 1022.37 1022.21 1021.81 1021.57 1021.47 1021.17 1021.22 1021.18 1021.14 1020.83 1020.58 1020.20 1019.92 1019.67 1019.26 1018.83 1018.45 1018.04 1017.86 1017.64 1017.40 1017.18
1022.45 1022.38 1022.41 1021.66 1021.63 1022.21 1021.95 1021.40 1021.31 1021.02 1020.92 1020.67 1020.48 1020.30 1020.10 1019.97 1019.68 1019.40 1019.10 1018.63 1018.25 1017.98 1017.71 1017.40 1017.05 1016.84 1016.57
1022.03 1021.83 1021.79 1021.51 1021.51 1021.50 1021.34 1021.10 1020.87 1020.52 1020.34 1020.01 1019.85 1019.65 1019.49 1019.30 1019.08 1018.75 1018.35 1018.01 1017.74 1017.53 1017.26 1016.95 1016.63 1016.43 1016.19
1021.75 1021.56 1021.36 1021.20 1021.02 1021.03 1020.88 1020.75 1020.67 1020.34 1020.12 1019.83 1019.44 1019.08 1018.83 1018.45 1018.08 1017.83 1017.50 1017.28 1017.03 1016.74 1016.46 1016.26 1016.08 1015.89 1015.64
1021.61 1021.05 1020.91 1020.91 1020.74 1020.82 1021.03 1020.99 1020.76 1020.41 1020.01 1019.58 1018.97 1018.80 1018.37 1017.77 1017.39 1017.11 1016.77 1016.47 1016.21 1015.95 1015.65 1015.39 1015.18 1015.03 1014.79
1021.26 1021.09 1020.92 1020.73 1020.99 1021.24 1021.46 1021.40 1020.97 1020.31 1019.95 1019.32 1018.78 1018.21 1017.66 1017.21 1016.74 1016.22 1015.87 1015.58 1015.32 1015.13 1014.92 1014.67 1014.34 1014.13 1013.89
1021.24 1021.14 1020.99 1020.99 1021.43 1021.50 1021.36 1021.10 1020.72 1020.10 1019.74 1018.87 1018.21 1017.69 1017.09 1016.39 1016.00 1015.52 1015.10 1014.75 1014.48 1014.21 1014.02 1013.80 1013.52 1013.22 1012.94
1021.20 1021.24 1021.11 1021.08 1021.17 1021.02 1020.79 1020.63 1020.25 1019.65 1019.18 1018.63 1017.78 1017.39 1016.46 1015.69 1015.34 1014.90 1014.46 1014.10 1013.79 1013.52 1013.30 1013.04 1012.73 1012.40 1012.11
1021.11 1021.12 1021.05 1020.93 1020.81 1020.86 1020.84 1020.69 1020.11 1019.46 1019.13 1018.76 1017.58 1017.17 1016.49 1015.40 1014.93 1014.36 1013.98 1013.53 1013.15 1012.85 1012.44 1012.19 1011.87 1011.57 1011.26
1020.86 1020.71 1020.38 1020.31 1020.26 1020.54 1020.69 1020.59 1020.45 1019.70 1018.49 1018.75 1017.81 1017.70 1016.47 1014.81 1014.50 1014.27 1013.98 1013.23 1012.68 1012.17 1011.85 1011.37 1010.99 1010.71 1010.58
1020.63 1020.39 1020.27 1020.21 1020.15 1020.09 1020.12 1020.27 1020.29 1019.77 1018.82 1018.88 1018.01 1017.87 1017.69 1016.00 1014.16 1014.01 1013.61 1012.82 1012.21 1011.67 1011.23 1010.79 1010.48 1010.15 1009.79
1020.65 1020.55 1020.42 1020.32 1020.27 1020.20 1020.24 1020.16 1019.99 1019.47 1018.60 1018.94 1018.27 1017.95 1017.39 1016.24 1014.87 1013.53 1013.07 1012.65 1012.05 1011.38 1010.85 1010.39 1009.94 1009.49 1009.09
1020.78 1020.61 1020.47 1020.42 1020.35 1020.09 1019.59 1019.28 1018.89 1018.39 1017.92 1017.67 1017.50 1017.07 1016.80 1015.97 1014.78 1013.68 1012.95 1011.77 1011.42 1010.80 1010.35 1009.88 1009.37 1008.93 1008.29
1020.81 1020.68 1020.55 1020.26 1019.99 1019.70 1019.26 1018.84 1018.32 1017.41 1017.04 1016.60 1016.26 1016.05 1015.45 1014.89 1014.20 1012.83 1012.31 1011.86 1010.61 1010.15 1009.61 1008.82 1008.19 1007.75 1007.31
1020.89 1020.76 1020.50 1020.17 1019.79 1019.49 1019.10 1018.50 1017.81 1016.74 1015.94 1015.62 1015.20 1014.76 1014.30 1013.72 1012.62 1011.86 1011.10 1010.44 1009.71 1008.98 1008.63 1007.53 1006.91 1006.43 1005.87
1021.05 1020.77 1020.42 1020.10 1019.69 1019.24 1018.67 1018.08 1017.25 1016.40 1015.58 1014.86 1014.22 1013.42 1012.69 1011.97 1011.53 1010.40 1009.95 1009.27 1008.48 1007.97 1007.48 1006.67 1005.33 1004.94 1004.54
1020.78 1020.46 1020.13 1019.76 1019.33 1018.77 1018.14 1017.49 1016.60 1015.93 1015.12 1014.35 1013.63 1013.01 1011.83 1010.58 1009.80 1009.50 1009.04 1008.18 1007.55 1006.91 1006.45 1005.74 1004.71 1003.48 1003.36
Wind_Speed
1 1 2 4 6 8 9 7 7 16 17 18 20 20 21 22 22 22 22 22 22 22 23 22 22 23 23
2 4 6 6 3 6 8 7 7 12 18 18 20 20 21 22 21 22 22 22 22 23 23 24 24 24 25
3 2 3 3 5 6 6 7 7 13 17 17 19 19 20 20 22 22 22 22 22 22 22 23 24 25 26
3 4 3 5 4 5 5 4 7 7 12 15 18 17 19 21 22 22 21 21 20 20 20 22 23 24 25
4 4 3 4 4 3 5 6 7 8 6 7 4 8 9 16 17 20 19 20 21 22 23 24 25 25 25
3 4 7 4 4 4 4 6 6 4 5 10 8 9 9 8 19 22 22 22 23 23 22 22 23 23 23
6 6 7 5 2 5 7 7 8 8 9 10 9 9 10 10 21 23 24 25 24 23 22 22 22 22 23
4 6 6 5 5 5 6 8 8 9 7 9 9 9 11 9 22 26 25 23 22 22 22 22 23 24 25
9 12 13 14 12 5 5 6 8 8 7 7 5 7 11 12 11 19 20 21 24 25 23 23 23 25 19
4 7 8 6 10 5 4 7 6 6 1 3 7 6 5 5 5 7 10 19 22 23 24 23 23 11 9
4 4 4 4 3 3 3 4 6 9 10 7 4 7 6 8 7 7 10 11 9 11 20 23 21 17 9
3 3 3 5 5 6 8 8 7 11 13 10 6 6 8 11 12 7 8 10 10 9 8 14 20 21 22
4 5 5 7 8 8 8 9 10 11 10 12 10 9 8 10 13 12 12 10 10 9 7 8 9 9 10
5 6 7 6 7 6 7 9 8 10 8 8 10 10 10 10 11 14 11 9 10 11 10 10 10 9 10
6 5 6 6 6 6 6 8 9 11 11 8 8 10 10 14 13 12 12 12 11 12 11 12 10 10 10
6 6 7 7 8 6 7 8 9 10 10 9 10 9 8 10 18 13 11 11 10 11 11 12 13 10 10
5 7 7 6 10 8 8 8 9 9 10 9 9 9 11 13 8 12 10 12 11 11 10 10 13 13 10
Wind_Direction
194 182 279 257 269 250 255 296 290 293 295 293 293 293 292 291 292 290 286 287 286 286 286 287 288 289 291
242 223 220 233 327 295 280 273 281 290 290 290 289 290 291 290 289 285 284 283 285 287 289 288 288 288 287
284 302 281 248 254 274 288 288 275 290 294 297 294 296 289 287 285 283 283 285 285 285 285 285 285 284 283
254 281 287 271 240 271 283 321 305 300 301 293 290 287 291 290 287 289 288 286 286 286 286 284 281 279 279
260 259 318 301 296 336 310 309 309 296 292 285 293 296 286 293 292 292 290 293 293 291 289 286 284 284 283
316 289 275 315 344 318 330 310 313 281 315 294 290 292 287 285 288 293 294 295 295 292 290 286 284 281 280
293 300 307 315 23 279 271 275 278 282 290 290 286 289 283 283 291 293 293 296 295 292 287 284 283 283 282
311 306 297 290 288 285 288 288 285 281 279 288 291 290 287 289 299 297 298 295 293 293 292 290 288 286 285
283 280 282 281 277 285 280 285 293 295 297 281 275 303 294 290 284 282 295 294 297 295 292 289 287 285 284
271 290 282 275 277 248 256 275 289 298 338 334 303 313 298 281 288 305 289 285 294 296 295 289 289 284 275
292 305 301 287 289 294 287 272 268 262 272 290 298 300 277 296 292 298 291 291 286 290 295 295 294 285 274
309 294 309 306 305 303 294 285 269 267 285 283 273 278 277 285 285 302 301 298 288 286 289 289 295 293 290
308 304 310 308 305 295 288 294 287 274 277 270 262 262 256 269 283 295 297 302 286 276 279 284 282 276 278
302 308 307 304 302 304 303 309 297 293 267 263 252 248 259 256 265 281 282 280 293 286 280 276 269 262 260
305 302 302 302 300 305 299 297 289 306 309 303 281 264 250 257 271 268 280 280 277 281 280 277 269 264 258
302 297 300 298 297 289 279 285 296 305 301 305 301 291 276 254 239 272 271 272 276 281 284 285 285 277 266
289 298 297 284 300 292 289 292 299 302 293 295 301 299 297 295 290 260 277 284 287 284 279 272 276 281 277